Vancouver Int'l Airport, British Columbia

Past 24 Hour Conditions

Date / Time
(PST)
Conditions Temp
(°C)
Humidity
(%)
Dew Point
(°C)
Wind
(km/h)
Pressure
(kPa)
Visibility
(km)
28 January 2015
5:00 Mostly Cloudy 5   94 4 E 4 102.8 24
4:00 Mostly Cloudy 7 95 6 SE 8 102.7 24
3:00 Mostly Cloudy 6 95 5 SE 9 102.7 24
2:00 Mostly Cloudy 7 95 6 SSE 5 102.6 24
1:00 Mostly Cloudy 7 95 6 SW 7 102.6 24
00:00 Mostly Cloudy 6 97 6 SW 8 102.5 24
27 January 2015
23:00 Mostly Cloudy 6 96 6 W 6 102.5 24
22:00 Mostly Cloudy 8 96 7 W 8 102.4 16
21:00 Mostly Cloudy 8 95 7 W 13 102.3 16
20:00 Mostly Cloudy 8 96 7 W 9 102.2 19
19:00 Mostly Cloudy 8 96 8 W 14 102.1 19
18:00 Mostly Cloudy 8 98 8 WNW 9 102.1 24
17:00 Mostly Cloudy 8 97 7 WNW 12 102.0 24
16:00 Mostly Cloudy 9 95 8 WNW 14 101.9 24
15:00 Mostly Cloudy 10 92 9 SSW 12 101.9 24
14:00 Mostly Cloudy 11   88 9 SSE 13 101.8 24
13:00 Mostly Cloudy 11   90 10 SE 13 101.8 24
12:00 Mostly Cloudy 11   91 9 ESE 11 101.8 24
11:00 Mostly Cloudy 10 95 9 E 18 101.8 24
10:00 Mostly Cloudy 10 93 9 ESE 17 101.7 24
9:00 Mostly Cloudy 9 94 8 ESE 14 101.7 24
8:00 Mostly Cloudy 8 96 8 E 12 101.6 24
7:00 Mostly Cloudy 8 97 7 E 10 101.6 24
6:00 Mostly Cloudy 8 98 7 ENE 13 101.5 24
5:00 Mostly Cloudy 7 99 7 E 8 101.6 24
N/A Not available
↑ Highest temperature
↓ Lowest temperature

If you require additional historical weather information, please visit Climate Data Online.

What we are doing

Date modified: